Location: Fuller Park
(33.8686°N, 117.9781°W)
Time: 02:17:53
(UTC+00:00)

Cosmos 2315 Rocket - Pass Details

Date: 03 August 2024
Orbit: 965 x 1002 km, 82.9° (Epoch: 08 September)

Event Time Altitude Azimuth Distance (km) Brightness Sun altitude
Rises 12:20:30 0° 180° (S) 3,710 6.8 -9.3°
Reaches altitude 10° 12:23:01 10° 179° (S) 2,764 6.1 -8.9°
Maximum altitude 12:29:22 79° 94° (E) 1,022 4.3 -7.7°
Drops below altitude 10° 12:35:44 10° 9° (N) 2,768 6.9 -6.5°
Sets 12:38:16 0° 8° (N) 3,716 7.6 -6.0°
